Regional Weather Roundup
Issued by NWS Kansas City/Pleasant Hill, MO

Home | Current Version | Previous Version | Text Only | Print | Product List | Glossary On
Versions: 1 2 3 4 5 6 7 8 9 10 11 12 13 14 15 16 17 18 19 20 21 22 23 24 25 26 27
000
ASUS43 KEAX 270310
RWREAX

WEATHER ROUNDUP FOR EASTERN KANSAS AND NORTHWEST MISSOURI
NATIONAL WEATHER SERVICE KANSAS CITY/PLEASANT HILL MO
1000 PM CDT FRI AUG 26 2016

KSZ040-057-103>105-MOZ028-029-037-043-270400-
...KANSAS CITY METROPOLITAN AREA...

CITY           SKY/WX    TMP DP  RH WIND       PRES   REMARKS
K.C. INTL      CLOUDY    70  69  97 E5        30.04R
K.C. DOWNTOWN  TSTM      72  69  90 W5        30.03R
LEES SUMMIT    CLOUDY    72  66  81 NW12      30.06R
OLATHE - IXD   CLOUDY    72  70  93 CALM      30.05R
OLATHE - OJC   CLOUDY   N/A N/A N/A N5        30.05R
LAWRENCE       CLOUDY    71  70  96 N3        30.04R

$$

MOZ001>008-011>017-020>025-030>033-038>040-044>046-053-054-270400-
...NORTHERN AND CENTRAL MISSOURI...

CITY           SKY/WX    TMP DP  RH WIND       PRES   REMARKS
ST. JOSEPH     CLOUDY    69  68  96 NW5       30.04R FOG
MOSBY          RAIN      68  68 100 SE7       30.06R
WHITEMAN AFB   MOCLDY    73  73 100 E2        30.05R
CLINTON        CLOUDY    73  72  94 CALM      30.03R
SEDALIA        CLOUDY    75  72  90 N5        30.06R
WARSAW         NOT AVBL
CHILLICOTHE      N/A     70  68  93 S13G28    30.03R
KIRKSVILLE     CLOUDY    73  71  93 E6        30.06R

$$

MOZ041-047>049-056>058-063>065-088>090-097-270400-
...EASTERN AND SOUTHERN MISSOURI...

CITY           SKY/WX    TMP DP  RH WIND       PRES   REMARKS
ST. LOUIS INTL CLOUDY    82  70  66 SE9       30.05S
SPIRIT OF STL  CLOUDY    80  73  79 VRB3      30.04R
COLUMBIA       CLOUDY    76  74  93 E5        30.04S
JEFFERSON CITY CLOUDY    76  71  85 CALM      30.03R
ROLLA          CLOUDY    73  70  90 SE8       30.06S
OSAGE BEACH    CLOUDY    74  69  85 S8G17     30.04F
SPRINGFIELD    CLOUDY    75  71  87 S7        30.04S
BRANSON        CLOUDY    75  72  88 CALM      30.07S
JOPLIN         CLOUDY    74  70  87 SE8       30.03R
WEST PLAINS    PTCLDY    77  69  76 SE8       30.11R

$$

IAZ060-094-KSZ022-034>040-054-083-096-NEZ052-066-093-270400-
...KANSAS...SOUTHEAST NEBRASKA AND IOWA...

CITY           SKY/WX    TMP DP  RH WIND       PRES   REMARKS
TOPEKA         CLOUDY    71  69  93 N6        30.04R
MANHATTAN      PTCLDY    69  67  93 CALM      30.03R
EMPORIA        CLOUDY    73  67  81 S10       30.04R
CHANUTE        MOCLDY    73  70  90 S7        30.02R
WICHITA        PTCLDY    76  67  73 SE6       30.01R
OMAHA          CLOUDY    68  62  81 E5        30.07R
LINCOLN        CLOUDY    67  65  93 NE3       30.06S
FALLS CITY     PTCLDY    68  68 100 W3        30.05R FOG
LAMONI         LGT RAIN  68  68 100 NE8       30.03F
DES MOINES     LGT RAIN  67  64  90 E9        30.07S

$$





USA.gov is the U.S. government's official web portal to all federal, state and local government web resources and services.